EW8689 Weather Reports


time (UTC)temp
C
wind
direction
speed
KPH
gust
KPH
rain 1hr
cm
rain 24hr
cm
rain mn
cm
humidity
%
barometer
mb
20260507040016 9 0.0 0.0 0.00 1.83 0.00 96 1012.2
20260507034512 9 0.0 0.0 0.00 2.03 0.00 96 1012.1
20260507033008 8 0.0 0.0 0.00 2.03 0.00 95 1012.1
20260507031503 8 0.0 0.0 0.00 2.03 0.00 95 1012.0
20260507030104 8 0.0 0.0 0.00 2.03 0.00 95 1012.0
20260507024559 8 0.0 0.0 0.00 2.11 0.00 95 1012.1
20260507023053 8 0.0 0.0 0.00 2.11 0.00 95 1012.0
20260507021548 8 0.0 0.0 0.00 2.11 0.00 95 1011.9
20260507020049 8 0.0 0.0 0.00 2.11 0.00 95 1011.8
20260507014537 9 0.0 0.0 0.00 2.11 0.00 95 1011.7
20260507013033 9 0.0 0.0 0.00 2.11 0.00 95 1011.7
20260507011529 9 0.0 0.0 0.00 2.11 0.00 95 1011.6
20260507010028 9 0.0 0.0 0.00 2.11 0.00 95 1011.7
20260507004530 10 0.0 0.0 0.00 2.11 0.00 95 1011.6
20260507003021 10 0.0 0.0 0.00 2.11 0.00 95 1011.7
20260507001521 10 0.0 0.0 0.00 2.11 0.00 95 1011.7
20260507000012 10 0.0 0.0 0.00 2.11 0.00 95 1011.5
20260506234507 10 0.0 0.0 0.00 2.11 0.00 95 1011.4
20260506233102 10 0.0 0.0 0.00 2.11 0.00 94 1011.5
20260506231554 10 0.0 0.0 0.00 2.11 0.00 94 1011.5
20260506230054 10 0.0 0.0 0.00 2.11 0.00 94 1011.5
20260506224559 10 0.0 0.0 0.00 2.11 0.00 94 1011.4
20260506223042 10 0.0 0.0 0.00 2.11 0.00 94 1011.3
20260506221537 10 0.0 0.0 0.00 2.11 0.00 94 1011.3
20260506220037 10 0.0 0.0 0.00 2.11 0.00 94 1011.2
20260506214528 10 0.0 0.0 0.00 2.46 2.11 94 1011.1
20260506213024 10 0.0 0.0 0.00 2.46 2.11 94 1011.1
20260506211519 10 0.0 0.0 0.00 2.46 2.11 94 1011.1
20260506210021 10 0.0 0.0 0.00 2.46 2.11 93 1011.1
20260506204513 10 0.0 0.0 0.00 2.67 2.11 93 1010.9
20260506203007 10 0.0 0.0 0.00 2.67 2.11 93 1010.8
20260506201503 10 0.0 0.0 0.00 2.67 2.11 92 1010.6
20260506200058 10 0.0 0.0 0.03 2.67 2.11 92 1010.6
20260506194604 10 0.0 0.0 0.05 2.67 2.11 92 1010.4
20260506193054 10 0.0 0.0 0.10 2.67 2.11 92 1010.1
20260506191546 10 0.0 0.0 0.13 2.67 2.11 92 1009.8
20260506190043 10 0.0 0.0 0.13 2.64 2.08 91 1009.8
20260506184537 10 0.0 0.0 0.08 2.59 2.03 89 1009.8
20260506183033 11 0.0 0.0 0.18 2.57 2.01 88 1009.8
20260506181533 11 0.0 0.0 0.15 2.54 1.98 88 1009.7
20260506180026 12 0.0 0.0 0.15 2.51 1.96 86 1009.3
20260506174519 13 0.0 0.0 0.15 2.51 1.96 82 1008.9
20260506173015 13 0.0 0.0 0.00 2.39 1.83 80 1008.7
20260506171513 14 0.0 0.0 0.00 2.39 1.83 79 1008.3
20260506170007 14 0.0 0.0 0.00 2.39 1.83 78 1008.1
20260506164502 14 0.0 0.0 0.00 2.41 1.83 79 1007.8
20260506163106 14 0.0 0.0 0.00 2.41 1.83 78 1008.0
20260506161605 14 0.0 0.0 0.00 2.41 1.83 78 1008.1
20260506160050 15 0.0 0.0 0.00 2.41 1.83 77 1008.0
20260506154606 15 0.0 0.0 0.00 2.41 1.83 78 1008.1
20260506153041 15 0.0 0.0 0.00 2.41 1.83 74 1008.0
20260506151538 16 0.0 0.0 0.00 2.41 1.83 71 1008.1
20260506150032 16 0.0 0.0 0.00 2.41 1.83 73 1008.0
20260506144527 16 0.0 0.0 0.00 2.41 1.83 75 1008.1
20260506143023 16 0.0 0.0 0.00 2.41 1.83 74 1008.3
20260506141519 15 0.0 0.0 0.00 2.41 1.83 77 1008.4
20260506140021 15 0.0 0.0 0.00 2.41 1.83 82 1008.5
20260506134510 15 0.0 0.0 0.00 2.41 1.83 84 1008.6
20260506133006 15 0.0 0.0 0.00 2.41 1.83 84 1008.7
20260506131502 14 0.0 0.0 0.00 2.41 1.83 84 1008.8
20260506130059 14 0.0 0.0 0.00 2.41 1.83 88 1008.8
20260506124555 13 0.0 0.0 0.00 2.44 1.83 91 1008.8
20260506123049 13 0.0 0.0 0.00 2.44 1.83 93 1008.9
20260506121544 12 0.0 0.0 0.00 2.44 1.83 95 1009.0
20260506120045 12 0.0 0.0 0.00 2.44 1.83 96 1009.0
20260506114536 12 0.0 0.0 0.00 3.00 1.83 96 1009.1
20260506113033 11 0.0 0.0 0.00 3.00 1.83 96 1009.2
20260506111527 11 0.0 0.0 0.00 3.00 1.83 96 1009.3
20260506110023 11 0.0 0.0 0.00 3.00 1.83 96 1009.3
20260506104518 11 0.0 0.0 0.03 3.00 1.83 96 1009.3
20260506103014 11 0.0 0.0 0.05 3.00 1.83 96 1009.4
20260506101509 12 0.0 0.0 0.05 3.00 1.83 96 1009.3
20260506100006 11 0.0 0.0 0.10 3.00 1.83 96 1009.3
20260506094503 11 0.0 0.0 0.13 2.97 1.80 96 1009.2
20260506093056 11 0.0 0.0 0.15 2.97 1.78 96 1009.0
20260506091557 11 0.0 0.0 0.20 2.92 1.75 96 1008.9
20260506090048 10 0.0 0.0 0.23 2.87 1.73 96 1008.7
20260506084545 11 0.0 0.0 0.23 2.84 1.68 96 1008.6
20260506083039 10 0.0 0.0 0.25 2.79 1.63 96 1008.4
20260506081535 10 0.0 0.0 0.33 2.74 1.55 96 1008.3
20260506073022 10 0.0 0.0 0.38 2.54 1.37 96 1007.8
20260506071518 10 0.0 0.0 0.33 2.41 1.24 96 1007.7
20260506061505 10 0.0 0.0 0.30 2.08 0.89 95 1006.9
20260506044543 10 0.0 0.0 0.23 1.68 0.43 95 1006.3
20260506043038 10 0.0 0.0 0.20 1.60 0.36 95 1006.2
20260506041535 10 0.0 0.0 0.20 1.55 0.30 95 1006.2